GPS BIIF-9

Last updated on Mon Dec 15 2025 00:02:41 GMT+0000 (Coordinated Universal Time)

1 40534U 15013A 25347.58638733 .00000048 00000+0 00000+0 0 9990 2 40534 53.1976 211.8551 0107097 38.5041 322.3346 2.00562579 78102
UTC large
Height (km)
Speed (km/s)
/
Latitude / Longitude
Inclination (degrees)
Orbital Period (minutes)
Azimuth
Elevation
Range (km)
Doppler Factor

Next 0 passes for location: London (51.5072 / 0.1276)

Sorry there are no passes over London.